Location: ?astrovice
(49.6513°N, 14.9287°E)
Time: 23:13:14
(UTC+00:00)

RESURS DK-1 - Pass Details

Date: 09 April 2020
Orbit: 557 x 561 km, 69.9° (Epoch: 03 June)

Event Time Altitude Azimuth Distance (km) Brightness Sun altitude
Rises 20:44:26 0° 324° (NW) 2,761 7.3 -25.1°
Reaches altitude 10° 20:46:44 10° 317° (NW) 1,859 6.1 -25.3°
Enters shadow 20:50:15 40° 263° (W) 836 3.4 -25.6°
